Vertical_Velocity
0 1 -2 -1 -2 -2 -2 -2 -1 -0 -0 -0 -3 -2 -0 -1 -1 0 -0 -2 -3 -3 -2 -3 -2 -2 -1 -6 -2 -1 -3 -3 -2 -0 -1 -2 1 5 3 -0 -0 1 3 -1 2 2 2
-2 -2 1 -2 -1 -1 1 0 -1 -2 -1 -1 -3 -2 1 -0 -1 -1 -2 -3 -3 -3 -3 -3 -3 -4 -1 -1 -4 -2 -1 -2 -4 -1 1 -0 0 1 2 2 -1 -0 -3 -3 -0 1 2
2 -2 -1 1 -1 -0 1 -1 2 -1 -1 1 -1 -1 -0 -2 -1 -2 -4 -3 -3 -2 -2 -3 -2 1 -0 -2 -4 -3 -2 -1 -2 -2 -1 0 -0 -1 -0 1 0 -2 3 -4 -2 4 -2
-2 3 -2 0 -2 -1 -1 -2 0 2 -1 1 2 -3 -1 -3 -2 -2 -4 -3 -2 -2 -2 -2 -3 -2 -2 -4 -3 -1 -3 -4 -1 -2 -1 0 -0 -1 0 1 0 -1 -1 3 1 4 1
-1 -0 -2 -0 1 -2 -3 -1 -1 1 2 1 1 -3 -3 -3 -1 -1 -3 -2 -1 -2 -2 -2 -1 -1 -4 1 2 -0 -3 -3 -1 -0 -0 1 1 0 1 -1 3 -3 8 -1 3 1 -2
0 -2 1 -3 -0 1 -1 -1 0 -3 2 1 -1 -3 0 -2 -1 -2 -2 -2 -2 -1 -1 -3 -4 -2 -6 -6 -2 -1 -2 -3 -4 -2 -3 1 1 1 1 3 4 3 3 -1 3 -1 3
1 -0 -1 -2 -2 -1 -0 -2 -2 1 -2 1 -2 -1 -1 2 -3 -4 -1 -2 -5 -4 -0 -0 -1 1 2 -2 -2 -1 0 -2 -2 -4 -5 -1 4 1 0 -1 0 -0 -0 3 0 1 1
-0 0 1 -1 -2 0 1 0 -2 -2 -0 -1 2 -1 -3 1 -1 -3 -2 0 -1 -4 -3 0 -0 -1 -0 -2 -0 -2 0 -1 -3 -2 -1 -1 -5 2 0 1 -0 0 3 1 1 1 -2
-2 -2 -1 1 -2 0 -0 1 -0 -1 -1 -0 -2 2 -0 -2 -1 -2 1 -2 -3 -3 -4 -2 1 -2 -4 -1 -3 -2 -1 -0 0 -2 -1 -1 -0 -2 1 2 3 -1 -1 -2 1 -2 -4
2 -1 -1 2 0 -1 -0 1 -1 -1 -1 -1 1 1 -2 0 1 -1 -2 -3 -2 -2 -4 1 -5 -4 -3 -1 -4 -4 -2 -0 -2 -1 -1 -1 -2 -1 -2 1 -1 4 -0 -1 -1 -2 7
-5 0 -1 -0 2 1 -0 -0 0 -1 -2 0 -2 1 1 -2 -1 -1 -2 -1 -1 -1 -3 -1 -3 -1 -2 -1 2 -4 -4 -4 -0 1 0 -0 0 -4 -2 -3 -1 -1 1 1 -2 -1 -3
2 -1 -1 -0 -1 2 3 0 -0 -1 -1 -1 -1 -1 -0 -0 -1 -1 -1 -2 -2 -4 -2 -1 -1 -1 2 -1 0 2 -4 -5 -1 -2 2 0 -1 -1 -0 -2 -0 -2 -2 -2 -0 0 1
1 -1 -3 1 -2 1 3 1 -1 -1 -1 -1 -1 -0 -0 -0 -0 -0 -1 -2 -2 -4 -3 -2 -3 -3 -1 -2 -2 -0 -3 -5 -8 -10 -4 -0 -2 -1 -2 -2 -2 1 -1 0 2 3 -0
-3 -3 -5 1 2 -0 0 4 -1 -1 -2 -2 -1 -0 -1 -0 -1 -0 -2 -1 -1 -1 -1 -0 -0 -0 -2 -4 -1 -1 -0 -1 -1 -4 -2 -3 -5 1 0 -1 -1 -2 0 2 2 1 1
8 -2 -6 0 0 1 2 1 4 1 -1 0 -2 -1 -1 1 0 -1 -2 0 -3 -1 1 -1 -4 0 -2 -4 -1 -2 -0 0 -1 0 -4 -3 -3 -2 0 -0 1 -1 0 -1 1 -2 4
3 5 -3 -5 1 1 2 1 1 1 -0 1 -1 -0 -1 -1 1 0 -0 1 2 -1 -0 -1 -1 -2 -1 1 -2 0 -1 -0 1 -1 0 -0 -6 -3 0 -0 -1 -1 -2 1 0 2 -1
-4 -0 -3 -1 -1 1 3 1 4 0 1 2 -1 -3 2 0 1 1 -1 -1 -1 1 -1 0 1 -1 2 -1 1 -2 -2 0 -2 -1 0 -0 -0 -1 0 -1 3 0 -1 -3 -2 -3 4
1 6 -1 -3 1 1 1 1 2 1 -1 1 1 -2 1 2 -2 1 -2 0 1 3 -1 -1 -0 -1 0 1 -4 0 -1 -1 1 -0 -0 -1 -0 -4 -0 -0 -4 -2 1 1 2 -2 -1
-0 -3 -1 -5 -1 -0 4 4 2 1 0 -0 -2 -1 2 2 -3 3 -1 -0 -0 1 2 -2 2 1 -1 1 -3 1 0 2 -0 -1 -2 0 2 -5 -1 -0 -1 -2 -1 1 1 3 -11
3 3 -10 -0 -1 -0 3 2 1 3 -0 -0 0 -2 -0 -0 2 3 1 -3 2 3 -2 1 2 3 1 -1 3 -4 -0 -3 2 2 1 0 0 -0 -4 -1 3 0 6 3 7 2 -10
2 8 2 1 0 1 3 2 2 0 0 -1 -0 -4 -3 -4 0 4 1 -0 -1 4 -2 1 -7 4 1 -2 -1 -2 -1 3 1 1 -1 3 -6 -1 6 -2 3 -1 -5 13 -2 -2 4
-4 -1 0 2 0 2 8 3 -1 1 1 -2 1 4 0 -3 1 2 4 -1 2 2 4 -1 1 -0 3 -4 5 -0 5 2 4 -5 1 0 -6 -3 -27 4 1 -9 -3 5 4 1 -10
2 -1 -1 2 1 -1 -2 -1 -3 0 1 1 3 1 3 -4 0 3 -3 2 -5 2 -2 2 1 2 -2 2 3 2 -0 -0 9 -4 6 6 3 8 -20 0 -1 -9 -7 2 0 2 4
-0 2 2 5 4 2 1 0 -2 -1 1 -1 3 1 3 -6 4 8 -2 -0 8 2 -3 -1 1 5 2 -3 -1 -0 -2 -0 1 -3 10 5 9 6 -8 1 3 -4 2 -6 3 3 -2
4 2 0 -4 2 -0 1 -2 0 0 -1 0 -0 3 2 -7 2 2 3 -5 -1 2 -1 -6 5 2 -2 -1 -2 -5 -9 -5 -5 -2 1 9 11 1 -2 3 -10 -39 -6 -3 5 -24 7
5 -0 4 5 5 4 -0 1 -2 -3 3 1 -2 1 0 1 -5 2 3 3 1 3 0 0 4 -1 -1 -0 -0 -2 -1 -4 -2 -2 -8 3 7 5 8 3 0 -10 -2 6 5 -22 -4
1 2 -1 -3 -7 -7 -1 0 -1 -2 -1 1 5 1 3 3 -6 3 2 -4 1 -0 -3 1 -0 -6 -3 -0 1 -5 -3 -2 -5 -3 -0 -1 1 -8 6 2 -8 -12 7 4 3 -5 -8
-1 -2 0 -2 -5 -6 -4 -4 -1 1 1 -2 2 4 4 -4 -5 5 9 -6 6 2 1 6 1 -9 -2 -1 1 -4 2 4 2 2 -4 6 8 -4 8 3 -13 2 9 2 10 8 10
-5 -3 -0 1 -4 -2 -6 -2 -0 0 -1 1 -1 2 5 2 -1 -8 -9 5 6 4 2 1 -0 -0 11 -1 -1 10 3 1 -0 -6 -1 -3 -20 8 -1 -18 2 3 -5 7 -11 3 1
Height
3181 3180 3179 3178 3176 3176 3174 3172 3170 3169 3167 3165 3163 3160 3157 3154 3151 3147 3144 3141 3136 3131 3126 3122 3118 3114 3110 3107 3104 3100 3096 3093 3091 3088 3087 3085 3083 3081 3081 3081 3082 3083 3085 3088 3091 3092 3094
3183 3181 3180 3179 3177 3177 3175 3174 3171 3169 3167 3166 3164 3161 3158 3155 3152 3148 3145 3142 3137 3133 3128 3123 3119 3115 3111 3108 3105 3101 3097 3094 3091 3089 3087 3085 3083 3082 3080 3080 3082 3082 3084 3085 3088 3091 3092
3183 3183 3181 3179 3178 3177 3176 3174 3172 3170 3168 3166 3164 3162 3159 3156 3153 3149 3146 3143 3138 3134 3130 3125 3121 3117 3112 3110 3105 3102 3099 3096 3093 3090 3087 3085 3083 3083 3081 3081 3081 3082 3083 3085 3087 3090 3091
3182 3183 3182 3181 3178 3177 3175 3174 3173 3171 3169 3166 3164 3162 3159 3157 3154 3150 3146 3144 3140 3136 3131 3127 3123 3119 3114 3110 3106 3104 3100 3097 3094 3091 3088 3085 3084 3083 3082 3081 3081 3082 3083 3084 3087 3088 3091
3182 3181 3182 3181 3180 3178 3176 3174 3173 3172 3169 3167 3165 3163 3160 3157 3154 3150 3147 3144 3141 3138 3133 3130 3125 3120 3116 3113 3109 3106 3103 3099 3096 3093 3090 3086 3085 3084 3083 3083 3083 3083 3083 3084 3085 3086 3089
3180 3180 3180 3180 3180 3179 3177 3175 3174 3172 3170 3168 3167 3164 3162 3158 3155 3151 3148 3144 3141 3139 3136 3131 3128 3124 3120 3116 3111 3107 3104 3101 3098 3095 3092 3089 3086 3085 3085 3084 3084 3083 3084 3083 3085 3085 3087
3178 3179 3178 3178 3179 3178 3178 3176 3174 3172 3169 3168 3167 3165 3162 3159 3156 3152 3148 3146 3145 3142 3137 3133 3130 3125 3122 3118 3114 3109 3106 3103 3100 3097 3094 3092 3090 3088 3086 3085 3085 3084 3084 3084 3084 3085 3086
3176 3176 3177 3176 3177 3177 3177 3175 3174 3172 3170 3168 3167 3165 3162 3160 3157 3153 3150 3146 3143 3143 3139 3134 3131 3126 3123 3120 3116 3112 3108 3106 3101 3098 3096 3095 3093 3091 3089 3087 3086 3086 3085 3085 3085 3085 3086
3173 3174 3174 3174 3174 3175 3175 3174 3172 3171 3169 3168 3166 3165 3163 3159 3157 3154 3150 3147 3143 3141 3139 3136 3132 3128 3124 3121 3117 3113 3110 3106 3103 3099 3097 3095 3095 3092 3091 3089 3088 3087 3087 3086 3086 3085 3085
3170 3171 3171 3172 3172 3172 3172 3172 3171 3170 3168 3167 3165 3163 3163 3159 3159 3154 3150 3147 3144 3141 3139 3140 3134 3131 3126 3121 3119 3114 3111 3108 3104 3102 3098 3097 3095 3093 3092 3091 3090 3089 3087 3087 3086 3086 3085
3165 3166 3167 3168 3168 3169 3169 3169 3169 3168 3167 3166 3164 3162 3160 3158 3156 3154 3151 3147 3143 3141 3140 3141 3136 3132 3127 3124 3121 3116 3113 3109 3106 3103 3102 3101 3096 3095 3094 3093 3091 3091 3088 3087 3086 3085 3085
3161 3161 3163 3164 3164 3165 3166 3166 3166 3165 3165 3164 3162 3161 3159 3158 3155 3153 3150 3147 3144 3144 3139 3140 3137 3133 3130 3125 3122 3118 3114 3111 3107 3104 3101 3100 3098 3096 3095 3093 3092 3090 3088 3087 3085 3084 3084
3156 3157 3157 3160 3160 3160 3162 3162 3162 3162 3162 3161 3160 3158 3157 3155 3154 3151 3149 3148 3146 3143 3144 3140 3136 3133 3130 3127 3123 3120 3116 3112 3109 3106 3103 3100 3099 3097 3095 3093 3092 3091 3089 3087 3086 3084 3081
3151 3154 3153 3154 3156 3156 3158 3158 3158 3157 3158 3158 3157 3156 3154 3153 3152 3150 3148 3148 3145 3142 3140 3138 3134 3132 3130 3127 3124 3121 3118 3114 3111 3108 3105 3103 3099 3097 3095 3094 3093 3091 3091 3091 3087 3083 3080
3145 3147 3149 3148 3151 3152 3152 3153 3154 3153 3153 3153 3153 3152 3151 3150 3149 3148 3148 3145 3142 3141 3139 3137 3134 3130 3129 3127 3125 3121 3118 3116 3113 3110 3109 3105 3102 3099 3096 3094 3094 3091 3091 3091 3090 3085 3082
3139 3141 3144 3144 3146 3147 3148 3149 3149 3149 3149 3149 3148 3148 3148 3147 3146 3144 3144 3143 3140 3139 3136 3135 3132 3131 3128 3125 3123 3121 3118 3116 3114 3111 3109 3106 3102 3099 3096 3093 3092 3091 3091 3091 3089 3085 3078
3134 3136 3137 3139 3140 3141 3142 3144 3144 3144 3144 3144 3144 3143 3143 3143 3141 3140 3139 3138 3137 3135 3135 3133 3131 3129 3127 3124 3121 3119 3117 3115 3112 3111 3109 3105 3104 3100 3096 3094 3092 3090 3089 3089 3089 3087 3080
3124 3128 3131 3133 3133 3135 3137 3138 3139 3139 3140 3139 3139 3140 3138 3138 3139 3135 3134 3134 3133 3131 3131 3129 3128 3126 3125 3123 3120 3117 3115 3114 3112 3110 3108 3105 3102 3096 3095 3091 3090 3089 3087 3087 3086 3084 3082
3117 3121 3124 3127 3128 3129 3131 3132 3133 3134 3134 3134 3134 3134 3134 3133 3132 3130 3129 3129 3128 3127 3127 3125 3124 3123 3122 3119 3119 3115 3113 3111 3110 3109 3107 3103 3100 3097 3092 3091 3088 3086 3084 3082 3081 3079 3076
3110 3116 3120 3120 3123 3124 3126 3126 3127 3129 3129 3129 3130 3129 3128 3128 3127 3126 3125 3125 3124 3123 3123 3122 3121 3119 3118 3115 3115 3111 3110 3108 3106 3104 3102 3100 3096 3094 3093 3088 3086 3082 3079 3077 3076 3074 3065
3104 3107 3111 3114 3116 3118 3119 3121 3122 3123 3123 3124 3124 3123 3123 3123 3122 3121 3121 3121 3120 3120 3119 3118 3115 3115 3113 3111 3109 3107 3105 3103 3100 3098 3096 3095 3091 3089 3082 3080 3078 3073 3069 3068 3065 3061 3062
3099 3103 3106 3108 3108 3110 3111 3115 3116 3116 3117 3118 3118 3118 3118 3118 3117 3116 3115 3115 3114 3113 3114 3112 3110 3109 3108 3105 3106 3103 3100 3098 3097 3093 3090 3088 3083 3080 3075 3073 3070 3065 3062 3059 3056 3054 3049
3094 3096 3098 3101 3102 3105 3108 3110 3111 3111 3111 3111 3111 3111 3111 3111 3111 3111 3111 3109 3108 3107 3107 3105 3105 3102 3101 3100 3098 3095 3093 3091 3089 3088 3085 3082 3078 3075 3070 3068 3065 3060 3053 3052 3051 3047 3043
3088 3090 3092 3095 3097 3100 3102 3103 3104 3105 3105 3105 3106 3105 3104 3104 3105 3105 3104 3104 3103 3100 3098 3099 3098 3095 3095 3091 3088 3085 3083 3080 3079 3077 3077 3072 3071 3071 3064 3064 3060 3051 3049 3048 3043 3041 3038
3082 3085 3087 3089 3092 3094 3096 3097 3098 3099 3099 3099 3099 3098 3097 3096 3098 3099 3098 3096 3096 3095 3093 3091 3091 3089 3086 3085 3081 3075 3074 3071 3068 3067 3067 3066 3065 3064 3060 3053 3046 3044 3040 3040 3037 3035 3033
3077 3080 3083 3084 3086 3087 3088 3090 3092 3094 3094 3093 3093 3092 3090 3089 3091 3091 3090 3090 3089 3087 3085 3085 3083 3082 3082 3079 3077 3070 3066 3066 3062 3061 3062 3061 3058 3059 3054 3049 3040 3038 3037 3035 3031 3029 3027
3073 3075 3077 3078 3079 3082 3084 3085 3086 3087 3088 3088 3087 3084 3082 3079 3083 3084 3082 3084 3083 3082 3077 3076 3074 3074 3073 3071 3067 3062 3055 3056 3051 3050 3049 3051 3050 3047 3047 3043 3032 3032 3030 3029 3031 3028 3023
3067 3070 3072 3074 3075 3076 3076 3077 3079 3081 3081 3081 3079 3078 3074 3069 3069 3073 3073 3075 3074 3073 3070 3069 3067 3065 3062 3060 3058 3054 3046 3046 3041 3040 3041 3043 3042 3039 3039 3038 3029 3027 3026 3024 3024 3020 3018
3063 3065 3066 3067 3068 3069 3070 3072 3073 3073 3073 3072 3070 3069 3065 3060 3056 3056 3058 3060 3060 3059 3058 3054 3055 3057 3056 3052 3050 3045 3040 3036 3036 3032 3036 3033 3032 3033 3030 3021 3020 3019 3020 3018 3015 3013 3010